Location: ActonStarParty
(42.4766°N, 71.4538°W)
Time: 12:19:19
(UTC-05:00)

ATLAS 5 CENTAUR R/B - Visible Passes

Search period start: 20 December 2014 00:00
Search period end: 30 December 2014 00:00
Orbit: 370 x 14889 km, 60.9° (Epoch: 11 December)

Date Brightness Start Highest point End Pass type
(mag) Time Alt. Az. Time Alt. Az. Time Alt. Az.
20 Dec 6.7 00:54:50 10° NW 01:31:02 42° NW 01:31:02 42° NW visible
20 Dec 7.1 16:56:14 10° SSW 19:07:12 76° NW 19:50:49 19° NE visible
20 Dec 6.5 23:25:38 10° WNW 00:25:45 52° NNW 00:25:45 52° NNW visible
21 Dec 7.3 15:46:59 10° S 17:50:42 89° ESE 18:45:17 10° NE visible
21 Dec 6.5 21:42:37 10° W 23:20:29 55° N 23:20:29 55° N visible
22 Dec 7.2 03:50:47 10° NW 03:55:26 14° NW 03:55:26 14° NW visible
22 Dec 7.4 14:41:33 10° S 16:38:09 74° ESE 17:36:28 10° NE visible
22 Dec 6.6 20:00:22 10° WSW 22:06:41 54° N 22:15:13 48° NNE visible
23 Dec 7.0 02:35:25 10° NW 02:50:10 24° NW 02:50:10 24° NW visible
23 Dec 6.7 18:32:20 10° SW 20:49:13 59° NNW 21:09:56 36° NE visible
24 Dec 6.8 01:18:09 10° NW 01:44:53 36° NW 01:44:53 36° NW visible
24 Dec 6.9 17:14:20 10° SW 19:29:19 69° NW 20:04:39 25° NE visible
24 Dec 6.6 23:55:12 10° NW 00:39:36 47° NNW 00:39:36 47° NNW visible
25 Dec 7.1 16:02:13 10° SSW 18:10:18 81° WNW 18:59:22 14° NE visible
25 Dec 6.5 22:20:39 10° WNW 23:34:19 55° N 23:34:19 55° N visible
26 Dec 7.3 14:54:16 10° S 16:55:04 84° ESE 17:52:06 10° NE visible
26 Dec 6.5 20:34:55 10° W 22:26:03 54° N 22:29:01 53° NNE visible
27 Dec 7.1 02:54:48 10° NW 03:03:58 18° NW 03:03:58 18° NW visible
27 Dec 6.6 18:57:51 10° WSW 21:10:25 56° NNW 21:23:42 43° NE visible
28 Dec 6.9 01:38:52 10° NW 01:58:39 29° NW 01:58:39 29° NW visible
28 Dec 6.8 17:34:10 10° SW 19:51:31 62° NNW 20:18:23 30° NE visible
29 Dec 6.7 00:19:45 10° NW 00:53:20 42° NW 00:53:20 42° NW visible
29 Dec 7.0 16:18:37 10° SSW 18:31:06 73° NW 19:13:03 19° NE visible
29 Dec 6.5 22:52:55 10° WNW 23:47:59 53° NNW 23:47:59 53° NNW visible
